Regional Weather Roundup
Issued by NWS

Home | Current Version | Previous Version | Graphics & Text | Print | Product List | Glossary On
Versions: 1 2 3 4 5 6 7 8 9 10 11 12 13 14 15 16 17 18 19 20 21 22 23 24 25 26 27 28 29 30 31 32 33 34 35 36 37 38 39 40 41 42 43 44 45 46 47 48 49 50
000
ASUS45 KBOI 272310
RWRID

IDAHO REGIONAL WEATHER ROUNDUP
NATIONAL WEATHER SERVICE BOISE ID
500 PM MDT WED MAY 27 2015

NOTE: "FAIR" INDICATES FEW OR NO CLOUDS BELOW 12000 FEET
WITH NO SIGNIFICANT WEATHER AND/OR OBSTRUCTIONS TO VISIBILITY

IDZ012-014-280000-
SOUTHWEST IDAHO


CITY           SKY/WX    TMP DP  RH WIND       PRES   REMARKS
BOISE          PTSUNNY   74  39  28 N16       29.95S
CALDWELL       PTSUNNY   75  43  31 NW13      29.96R
MOUNTAIN HOME  LGT RAIN  72  40  31 W22G30    29.95R
$$

IDZ016-017-280000-
SOUTHCENTRAL IDAHO


CITY           SKY/WX    TMP DP  RH WIND       PRES   REMARKS
BURLEY         CLOUDY    62  43  49 SW13      29.98S
JEROME         CLOUDY    64  45  49 SE14      29.98S
TWIN FALLS     CLOUDY    62  48  60 E5        29.97S
$$

IDZ019>023-280000-
SOUTHEAST IDAHO


CITY           SKY/WX    TMP DP  RH WIND       PRES   REMARKS
IDAHO FALLS    CLOUDY    56  46  69 E7        30.03F
POCATELLO      TSTM      57  51  80 NE14      30.00R
REXBURG        PTSUNNY   55  45  68 SE10      30.04F
$$

IDZ006-010-011-018-031-032-280000-
CENTRAL IDAHO MOUNTAINS


CITY           SKY/WX    TMP DP  RH WIND       PRES   REMARKS
MCCALL         PTSUNNY   60  39  45 W12G17    30.03F
HAILEY         MOSUNNY   63  46  55 SE13      30.00F
STANLEY          N/A     46  37  71 NW14G26   30.13R
SALMON         CLOUDY    57  41  54 CALM      30.03S
CHALLIS        CLOUDY    56  42  59 NE10      30.03F
$$

IDZ002-004-006-007-026-280000-
NORTHERN IDAHO


CITY           SKY/WX    TMP DP  RH WIND       PRES   REMARKS
LEWISTON       PTSUNNY   73  46  38 CALM      29.97S
LOWELL           N/A     69  49  48 SW6       29.98F
COEUR D`ALENE  PTSUNNY   72  46  40 W5        29.95F THUNDER
MULLAN PASS    CLOUDY    53  43  68 CALM      30.08F
$$


USA.gov is the U.S. government's official web portal to all federal, state and local government web resources and services.